�������l�o���
Date,Time,MP-1(��Sv/h),MP-2(��Sv/h),MP-3(��Sv/h),MP-4(��Sv/h),MP-5(��Sv/h),MP-6(��Sv/h),MP-7(��Sv/h),MP-8(��Sv/h),����,����(m/s),���J
2023/09/16,00:00,0.519,0.783,0.481,0.983,0.691,0.316,0.567,0.529,-,CALM,��
2023/09/16,00:10,0.520,0.783,0.480,0.983,0.690,0.317,0.568,0.527,-,CALM,��
2023/09/16,00:20,0.521,0.783,0.480,0.983,0.692,0.317,0.567,0.529,-,CALM,��
2023/09/16,00:30,0.519,0.782,0.481,0.981,0.691,0.317,0.566,0.528,���쐼,0.9,��
2023/09/16,00:40,0.520,0.783,0.480,0.982,0.694,0.317,0.568,0.529,��,0.9,��
2023/09/16,00:50,0.520,0.783,0.482,0.984,0.691,0.318,0.566,0.528,�k��,1.2,��
2023/09/16,01:00,0.520,0.785,0.481,0.981,0.692,0.317,0.568,0.529,���k��,0.6,��
2023/09/16,01:10,0.520,0.782,0.480,0.982,0.692,0.316,0.568,0.529,���k��,0.6,��
2023/09/16,01:20,0.518,0.784,0.482,0.983,0.693,0.316,0.570,0.528,���k��,1.1,��
2023/09/16,01:30,0.519,0.785,0.483,0.983,0.691,0.317,0.568,0.528,��,0.6,��
2023/09/16,01:40,0.520,0.783,0.483,0.982,0.692,0.317,0.570,0.528,-,CALM,��
2023/09/16,01:50,0.520,0.784,0.481,0.983,0.692,0.315,0.570,0.529,-,CALM,��
2023/09/16,02:00,0.519,0.784,0.483,0.982,0.694,0.316,0.568,0.530,-,CALM,��
2023/09/16,02:10,0.521,0.785,0.480,0.981,0.692,0.318,0.568,0.529,-,CALM,��
2023/09/16,02:20,0.519,0.784,0.482,0.982,0.693,0.316,0.568,0.529,-,CALM,��
2023/09/16,02:30,0.518,0.785,0.482,0.986,0.694,0.316,0.569,0.530,�k��,1.1,��
2023/09/16,02:40,0.518,0.783,0.481,0.981,0.693,0.316,0.570,0.530,�k��,1.9,��
2023/09/16,02:50,0.520,0.784,0.484,0.984,0.692,0.317,0.570,0.527,�k��,2.3,��
2023/09/16,03:00,0.519,0.785,0.482,0.984,0.691,0.316,0.569,0.527,�k��,2.3,��
2023/09/16,03:10,0.519,0.785,0.481,0.984,0.694,0.317,0.569,0.530,�k��,2.3,��
2023/09/16,03:20,0.520,0.785,0.483,0.983,0.692,0.317,0.569,0.529,�k�k��,1.5,��
2023/09/16,03:30,0.521,0.783,0.483,0.982,0.693,0.318,0.568,0.530,�k�k��,0.9,��
2023/09/16,03:40,0.519,0.785,0.483,0.984,0.693,0.317,0.568,0.530,�k�k��,2.3,��
2023/09/16,03:50,0.520,0.785,0.482,0.982,0.695,0.317,0.569,0.529,�k,2.2,��
2023/09/16,04:00,0.522,0.785,0.483,0.983,0.692,0.316,0.568,0.529,�k,2.5,��
2023/09/16,04:10,0.521,0.784,0.481,0.983,0.693,0.318,0.568,0.529,�k�k��,1.7,��
2023/09/16,04:20,0.521,0.784,0.484,0.983,0.693,0.317,0.569,0.529,�k,1.9,��
2023/09/16,04:30,0.520,0.783,0.484,0.983,0.692,0.318,0.566,0.530,�k�k��,1.5,��
2023/09/16,04:40,0.523,0.785,0.483,0.984,0.692,0.317,0.570,0.529,�k,1.7,��
2023/09/16,04:50,0.519,0.787,0.483,0.984,0.694,0.317,0.567,0.531,�k�k��,3.7,��
2023/09/16,05:00,0.520,0.786,0.483,0.985,0.693,0.317,0.569,0.529,�k�k��,3.8,��
2023/09/16,05:10,0.520,0.784,0.482,0.983,0.694,0.316,0.569,0.530,�k�k��,3.4,��
2023/09/16,05:20,0.521,0.785,0.484,0.983,0.693,0.318,0.569,0.531,�k�k��,3.4,��
2023/09/16,05:30,0.519,0.786,0.484,0.984,0.693,0.318,0.570,0.530,�k��,3.0,��
2023/09/16,05:40,0.519,0.785,0.484,0.983,0.694,0.317,0.570,0.530,�k�k��,2.6,��
2023/09/16,05:50,0.521,0.786,0.484,0.984,0.693,0.317,0.569,0.529,�k��,2.6,��
2023/09/16,06:00,0.521,0.786,0.483,0.983,0.694,0.317,0.569,0.528,�k��,1.5,��
2023/09/16,06:10,0.521,0.784,0.483,0.985,0.693,0.318,0.568,0.529,�k��,1.7,��
2023/09/16,06:20,0.520,0.786,0.483,0.983,0.693,0.318,0.569,0.531,�k��,1.2,��
2023/09/16,06:30,0.521,0.787,0.481,0.983,0.693,0.317,0.568,0.530,�k��,1.7,��
2023/09/16,06:40,0.522,0.785,0.483,0.984,0.693,0.317,0.569,0.530,�k�k��,2.0,��
2023/09/16,06:50,0.520,0.787,0.484,0.986,0.695,0.318,0.568,0.529,�k��,1.5,��
2023/09/16,07:00,0.520,0.785,0.481,0.983,0.693,0.318,0.569,0.529,�k��,1.9,��
2023/09/16,07:10,0.523,0.786,0.483,0.986,0.692,0.317,0.569,0.531,�k�k��,1.7,��
2023/09/16,07:20,0.520,0.786,0.485,0.983,0.692,0.316,0.569,0.531,�k�k��,1.5,��
2023/09/16,07:30,0.522,0.786,0.485,0.984,0.693,0.317,0.568,0.531,�k��,1.4,��
2023/09/16,07:40,0.523,0.786,0.482,0.985,0.693,0.317,0.568,0.530,�k�k��,1.7,��
2023/09/16,07:50,0.521,0.785,0.484,0.984,0.692,0.317,0.570,0.529,�k��,1.7,��
2023/09/16,08:00,0.521,0.787,0.482,0.982,0.694,0.318,0.569,0.530,�k��,1.2,��
2023/09/16,08:10,0.521,0.786,0.484,0.986,0.695,0.317,0.569,0.529,�k�k��,1.5,��
2023/09/16,08:20,0.523,0.786,0.485,0.986,0.695,0.317,0.570,0.528,-,CALM,��
2023/09/16,08:30,0.521,0.786,0.484,0.983,0.696,0.318,0.569,0.529,��,1.9,��
2023/09/16,08:40,0.522,0.788,0.483,0.987,0.694,0.317,0.570,0.527,�k��,1.1,��
2023/09/16,08:50,0.523,0.788,0.483,0.983,0.694,0.317,0.568,0.528,�k,2.0,��
2023/09/16,09:00,0.524,0.786,0.484,0.983,0.695,0.318,0.570,0.530,��,1.7,��
2023/09/16,09:10,0.523,0.786,0.484,0.981,0.693,0.318,0.570,0.530,���k��,0.9,��
2023/09/16,09:20,0.523,0.789,0.484,0.985,0.696,0.317,0.569,0.528,�k��,2.0,��
2023/09/16,09:30,0.522,0.791,0.486,0.986,0.694,0.318,0.570,0.530,�k��,1.7,��
2023/09/16,09:40,0.523,0.789,0.484,0.986,0.695,0.316,0.571,0.529,��,2.6,��
2023/09/16,09:50,0.522,0.790,0.485,0.984,0.697,0.318,0.569,0.529,���쓌,2.0,��
2023/09/16,10:00,0.524,0.789,0.484,0.985,0.697,0.318,0.570,0.529,��,1.5,��
2023/09/16,10:10,0.525,0.789,0.484,0.987,0.697,0.317,0.570,0.529,���쓌,1.5,��
2023/09/16,10:20,0.524,0.791,0.483,0.984,0.696,0.317,0.570,0.528,��,1.5,��
2023/09/16,10:30,0.526,0.791,0.484,0.986,0.697,0.316,0.570,0.528,���k��,2.0,��
2023/09/16,10:40,0.526,0.791,0.484,0.987,0.695,0.318,0.570,0.528,���k��,2.2,��
2023/09/16,10:50,0.524,0.790,0.486,0.987,0.698,0.319,0.571,0.529,���k��,2.0,��
2023/09/16,11:00,0.525,0.793,0.484,0.985,0.697,0.317,0.570,0.528,��,2.0,��
2023/09/16,11:10,0.524,0.792,0.484,0.986,0.697,0.317,0.570,0.530,���쓌,2.6,��
2023/09/16,11:20,0.525,0.790,0.486,0.987,0.698,0.317,0.569,0.530,�쓌,2.6,��
2023/09/16,11:30,0.524,0.794,0.484,0.988,0.699,0.318,0.571,0.531,���쓌,1.9,��
2023/09/16,11:40,0.524,0.791,0.483,0.987,0.698,0.318,0.571,0.529,��,1.7,��
2023/09/16,11:50,0.524,0.794,0.485,0.988,0.700,0.319,0.572,0.530,���쓌,2.6,��
2023/09/16,12:00,0.526,0.793,0.484,0.986,0.699,0.319,0.571,0.530,�쓌,3.0,��
2023/09/16,12:10,0.527,0.794,0.486,0.988,0.699,0.319,0.570,0.530,���쓌,1.7,��
2023/09/16,12:20,0.526,0.795,0.487,0.987,0.699,0.318,0.572,0.530,�쓌,3.2,��
2023/09/16,12:30,0.527,0.795,0.488,0.989,0.699,0.319,0.570,0.530,���쓌,2.3,��
2023/09/16,12:40,0.528,0.796,0.485,0.987,0.700,0.319,0.571,0.530,���쓌,2.8,��
2023/09/16,12:50,0.527,0.796,0.487,0.988,0.700,0.319,0.570,0.531,���쓌,3.0,��
2023/09/16,13:00,0.527,0.796,0.487,0.987,0.702,0.320,0.571,0.529,���쓌,2.6,��
2023/09/16,13:10,0.526,0.797,0.487,0.990,0.701,0.319,0.572,0.530,�쓌,3.4,��
2023/09/16,13:20,0.528,0.795,0.487,0.988,0.702,0.320,0.571,0.530,���쓌,3.2,��
2023/09/16,13:30,0.527,0.796,0.488,0.988,0.699,0.319,0.572,0.532,�쓌,3.1,��
2023/09/16,13:40,0.528,0.796,0.488,0.987,0.702,0.320,0.571,0.532,���쓌,2.6,��
2023/09/16,13:50,0.527,0.798,0.488,0.988,0.702,0.320,0.573,0.530,�쓌,3.1,��
2023/09/16,14:00,0.528,0.797,0.488,0.987,0.703,0.319,0.573,0.530,���쓌,2.6,��
2023/09/16,14:10,0.527,0.797,0.487,0.989,0.703,0.319,0.572,0.532,���쓌,2.3,��
2023/09/16,14:20,0.528,0.797,0.489,0.987,0.703,0.320,0.573,0.529,�쓌,3.3,��
2023/09/16,14:30,0.527,0.797,0.488,0.988,0.703,0.320,0.571,0.530,�쓌,2.5,��
2023/09/16,14:40,0.527,0.798,0.489,0.992,0.700,0.320,0.572,0.531,��쓌,3.0,��
2023/09/16,14:50,0.528,0.797,0.487,0.990,0.702,0.321,0.572,0.532,��,2.8,��
2023/09/16,15:00,0.528,0.797,0.489,0.989,0.704,0.321,0.572,0.531,��,3.4,��
2023/09/16,15:10,0.529,0.799,0.488,0.988,0.702,0.322,0.571,0.531,��쓌,3.3,��
2023/09/16,15:20,0.529,0.797,0.488,0.991,0.703,0.319,0.573,0.529,��쓌,3.2,��
2023/09/16,15:30,0.528,0.798,0.488,0.991,0.702,0.320,0.571,0.531,�쓌,3.8,��
2023/09/16,15:40,0.529,0.796,0.486,0.990,0.703,0.320,0.573,0.531,�쓌,4.0,��
2023/09/16,15:50,0.528,0.799,0.490,0.990,0.702,0.319,0.572,0.531,�쓌,3.1,��
2023/09/16,16:00,0.530,0.797,0.488,0.990,0.703,0.320,0.573,0.532,�쓌,3.2,��
2023/09/16,16:10,0.529,0.797,0.488,0.992,0.705,0.320,0.572,0.531,��쓌,2.5,��
2023/09/16,16:20,0.527,0.799,0.489,0.992,0.704,0.320,0.572,0.531,��쓌,3.7,��
2023/09/16,16:30,0.528,0.797,0.488,0.990,0.702,0.319,0.572,0.531,��쓌,2.8,��
2023/09/16,16:40,0.530,0.798,0.489,0.990,0.700,0.319,0.572,0.530,��,2.3,��
2023/09/16,16:50,0.528,0.797,0.487,0.989,0.703,0.319,0.571,0.532,���쓌,1.5,��
2023/09/16,17:00,0.530,0.798,0.486,0.989,0.703,0.319,0.572,0.530,�쓌,2.3,��
2023/09/16,17:10,0.528,0.797,0.489,0.991,0.701,0.319,0.572,0.530,��쓌,2.6,��
2023/09/16,17:20,0.529,0.798,0.490,0.988,0.702,0.321,0.572,0.528,��,3.7,��
2023/09/16,17:30,0.529,0.799,0.489,0.990,0.702,0.320,0.573,0.530,��,2.2,��
2023/09/16,17:40,0.528,0.799,0.489,0.990,0.704,0.320,0.573,0.531,��,2.3,��
2023/09/16,17:50,0.528,0.798,0.488,0.990,0.703,0.320,0.572,0.531,��,2.5,��
2023/09/16,18:00,0.528,0.798,0.488,0.991,0.705,0.320,0.572,0.531,��,1.2,��
2023/09/16,18:10,0.529,0.801,0.488,0.989,0.706,0.320,0.573,0.533,��쐼,1.2,��
2023/09/16,18:20,0.528,0.800,0.489,0.990,0.705,0.319,0.572,0.531,��쐼,1.2,��
2023/09/16,18:30,0.530,0.799,0.489,0.989,0.703,0.320,0.571,0.532,��쐼,1.1,��
2023/09/16,18:40,0.529,0.800,0.491,0.990,0.704,0.320,0.571,0.531,��,0.6,��
2023/09/16,18:50,0.530,0.799,0.489,0.991,0.704,0.321,0.572,0.532,�k��,1.1,��
2023/09/16,19:00,0.530,0.800,0.488,0.990,0.704,0.322,0.572,0.533,�k�k��,1.2,��
2023/09/16,19:10,0.530,0.801,0.490,0.990,0.702,0.322,0.572,0.531,�k,1.4,��
2023/09/16,19:20,0.531,0.799,0.490,0.991,0.705,0.321,0.572,0.531,���k��,0.6,��
2023/09/16,19:30,0.530,0.801,0.490,0.991,0.704,0.322,0.571,0.531,��,1.2,��
2023/09/16,19:40,0.531,0.801,0.490,0.991,0.704,0.321,0.573,0.530,�k��,0.9,��
2023/09/16,19:50,0.530,0.802,0.488,0.993,0.705,0.321,0.571,0.531,-,CALM,��
2023/09/16,20:00,0.527,0.800,0.487,0.992,0.704,0.321,0.573,0.531,�k��,1.4,��
2023/09/16,20:10,0.530,0.799,0.489,0.992,0.704,0.321,0.574,0.531,�k��,0.9,��
2023/09/16,20:20,0.530,0.801,0.488,0.990,0.705,0.321,0.572,0.530,���k��,0.9,��
2023/09/16,20:30,0.529,0.800,0.489,0.991,0.704,0.321,0.572,0.531,-,CALM,��
2023/09/16,20:40,0.530,0.801,0.488,0.991,0.705,0.321,0.571,0.530,��,0.9,��
2023/09/16,20:50,0.531,0.799,0.490,0.992,0.705,0.321,0.572,0.530,�k,1.1,��
2023/09/16,21:00,0.530,0.800,0.488,0.993,0.705,0.320,0.572,0.532,-,CALM,��
2023/09/16,21:10,0.529,0.800,0.490,0.990,0.704,0.320,0.572,0.532,���쓌,0.8,��
2023/09/16,21:20,0.529,0.799,0.489,0.989,0.704,0.321,0.570,0.531,�k�k��,0.8,��
2023/09/16,21:30,0.528,0.801,0.489,0.991,0.703,0.321,0.572,0.531,��쓌,1.4,��
2023/09/16,21:40,0.529,0.798,0.490,0.991,0.704,0.322,0.570,0.531,��쓌,0.9,��
2023/09/16,21:50,0.528,0.801,0.490,0.990,0.706,0.321,0.572,0.532,-,CALM,��
2023/09/16,22:00,0.529,0.802,0.488,0.992,0.706,0.321,0.573,0.532,�k,0.6,��
2023/09/16,22:10,0.530,0.802,0.490,0.992,0.704,0.321,0.573,0.531,-,CALM,��
2023/09/16,22:20,0.529,0.800,0.489,0.991,0.702,0.320,0.571,0.531,��쐼,1.2,��
2023/09/16,22:30,0.528,0.799,0.489,0.992,0.705,0.321,0.572,0.532,��쐼,0.8,��
2023/09/16,22:40,0.528,0.800,0.490,0.991,0.704,0.321,0.572,0.531,-,CALM,��
2023/09/16,22:50,0.530,0.799,0.489,0.992,0.705,0.323,0.571,0.533,���k��,0.9,��
2023/09/16,23:00,0.530,0.799,0.490,0.991,0.705,0.322,0.570,0.531,�k��,0.6,��
2023/09/16,23:10,0.528,0.799,0.491,0.990,0.708,0.323,0.574,0.532,�k,1.2,��
2023/09/16,23:20,0.531,0.799,0.488,0.992,0.705,0.320,0.573,0.532,�k,1.5,��
2023/09/16,23:30,0.530,0.800,0.490,0.993,0.705,0.322,0.572,0.531,�k�k��,2.3,��
2023/09/16,23:40,0.530,0.801,0.489,0.993,0.705,0.321,0.572,0.532,�k�k��,2.2,��
2023/09/16,23:50,0.531,0.802,0.492,0.993,0.704,0.322,0.572,0.532,�k�k��,2.8,��
